FW2084 Weather Reports


time (UTC)temp
C
wind
direction
speed
KPH
gust
KPH
rain 1hr
cm
rain 24hr
cm
rain mn
cm
humidity
%
barometer
mb
20260510022327 23 169 4.8 11.3 0.00 0.00 0.00 54 1008.8
20260510021827 23 196 1.6 8.0 0.00 0.00 0.00 54 1008.6
20260510021327 23 141 3.2 8.0 0.00 0.00 0.00 54 1008.4
20260510020826 23 164 3.2 8.0 0.00 0.00 0.00 54 1008.1
20260510020326 23 146 3.2 8.0 0.00 0.00 0.00 53 1008.0
20260510015827 23 194 3.2 9.7 0.00 0.00 0.00 53 1007.9
20260510015326 23 164 3.2 9.7 0.00 0.00 0.00 53 1007.5
20260510014826 23 222 6.4 8.0 0.00 0.00 0.00 53 1007.2
20260510014328 23 185 3.2 8.0 0.00 0.00 0.00 53 1007.3
20260510013826 23 170 4.8 8.0 0.00 0.00 0.00 52 1007.0
20260510013754 23 167 3.2 8.0 0.00 0.00 0.00 52 1007.1
20260510013538 23 167 3.2 8.0 0.00 0.00 0.00 52 1007.1
20260510012836 23 162 6.4 9.7 0.00 0.00 0.00 52 1007.0
20260510012722 24 116 3.2 6.4 0.00 0.00 0.00 51 1007.0
20260510012534 23 179 3.2 9.7 0.00 0.00 0.00 51 1007.0
20260510012018 23 165 1.6 9.7 0.00 0.00 0.00 52 1007.1
20260510011328 24 116 3.2 6.4 0.00 0.00 0.00 51 1007.0
20260510010827 24 164 3.2 6.4 0.00 0.00 0.00 51 1007.0
20260510010717 24 116 1.6 4.8 0.00 0.00 0.00 50 1007.1
20260510010326 24 116 1.6 4.8 0.00 0.00 0.00 50 1007.1
20260510005826 25 128 3.2 8.0 0.00 0.00 0.00 50 1007.1
20260510005327 25 153 3.2 8.0 0.00 0.00 0.00 49 1007.2
20260510004827 25 168 1.6 11.3 0.00 0.00 0.00 49 1007.3
20260510004327 25 159 6.4 11.3 0.00 0.00 0.00 48 1007.1
20260510003953 26 166 1.6 8.0 0.00 0.00 0.00 46 1007.1
20260510003938 25 104 1.6 8.0 0.00 0.00 0.00 46 1007.0
20260510003857 25 162 1.6 8.0 0.00 0.00 0.00 48 1006.9
20260510003512 26 102 1.6 9.7 0.00 0.00 0.00 45 1007.1
20260510003413 25 207 1.6 6.4 0.00 0.00 0.00 48 1006.9
20260510002952 25 104 1.6 8.0 0.00 0.00 0.00 46 1007.0
20260510002534 26 166 1.6 8.0 0.00 0.00 0.00 46 1007.1
20260510001728 26 130 3.2 11.3 0.00 0.00 0.00 44 1007.0
20260510001537 26 130 3.2 11.3 0.00 0.00 0.00 44 1007.0
20260510000826 26 202 4.8 11.3 0.00 0.00 0.00 44 1007.0
20260510000326 26 176 4.8 19.3 0.00 0.00 0.00 43 1007.0
20260509235827 27 197 9.7 29.0 0.00 0.00 0.00 42 1007.1
20260509235734 27 181 4.8 29.0 0.00 0.00 0.00 41 1007.1
20260509235539 27 181 4.8 29.0 0.00 0.00 0.00 41 1007.1
20260509235252 27 195 9.7 27.4 0.00 0.00 0.00 41 1007.1
20260509235058 27 195 9.7 27.4 0.00 0.00 0.00 41 1007.1
20260509234328 27 215 19.3 27.4 0.00 0.00 0.00 40 1007.3
20260509233828 28 218 14.5 30.6 0.00 0.00 0.00 41 1007.3
20260509233327 28 213 16.1 30.6 0.00 0.00 0.00 40 1007.2
20260509233053 28 168 9.7 20.9 0.00 0.03 0.00 41 1007.2
20260509232926 28 202 6.4 17.7 0.00 0.00 0.00 41 1007.2
20260509232614 28 168 9.7 20.9 0.00 0.03 0.00 41 1007.2
20260509232451 28 208 4.8 20.9 0.00 0.00 0.00 42 1007.2
20260509231327 28 213 16.1 25.7 0.00 0.48 0.00 41 1007.3
20260509230827 28 194 6.4 25.7 0.00 0.48 0.00 41 1007.3
20260509230336 28 206 14.5 22.5 0.00 0.48 0.00 42 1007.5
20260509225826 28 180 8.0 22.5 0.00 0.48 0.00 40 1007.5
20260509225327 29 159 12.9 20.9 0.00 0.48 0.00 40 1007.8
20260509224827 29 209 6.4 20.9 0.00 0.48 0.00 39 1008.0
20260509224327 29 217 17.7 19.3 0.00 0.48 0.00 37 1007.8
20260509224136 29 212 8.0 20.9 0.00 0.48 0.00 35 1007.9
20260509223819 29 212 8.0 20.9 0.00 0.48 0.00 35 1007.9
20260509223318 29 178 6.4 20.9 0.00 0.48 0.00 36 1008.1
20260509222819 29 142 8.0 16.1 0.00 0.48 0.00 37 1008.0
20260509222320 29 177 12.9 12.9 0.00 0.48 0.00 35 1008.1
20260509222240 29 163 4.8 14.5 0.00 0.48 0.00 35 1007.9
20260509222044 29 163 4.8 14.5 0.00 0.48 0.00 35 1007.9
20260509221808 29 149 3.2 17.7 0.00 0.48 0.00 34 1008.0
20260509221318 29 149 3.2 17.7 0.00 0.48 0.00 34 1008.0
20260509220818 29 136 3.2 17.7 0.00 0.48 0.00 33 1007.9
20260509220318 29 153 8.0 17.7 0.00 0.48 0.00 33 1008.1
20260509215824 30 244 4.8 9.7 0.00 0.48 0.00 30 1008.0
20260509215710 30 209 3.2 16.1 0.00 0.48 0.00 30 1008.1
20260509215320 30 209 3.2 16.1 0.00 0.48 0.00 30 1008.1
20260509214838 28 183 4.8 20.9 0.00 0.48 0.00 31 1008.2
20260509214818 29 175 4.8 16.1 0.00 0.48 0.00 32 1008.0
20260509214319 28 183 4.8 20.9 0.00 0.48 0.00 31 1008.2
20260509214214 29 100 3.2 20.9 0.00 0.48 0.00 29 1008.3
20260509213819 29 100 3.2 20.9 0.00 0.48 0.00 29 1008.3
20260509213316 30 197 8.0 16.1 0.00 0.48 0.00 31 1008.2
20260509212817 28 172 6.4 14.5 0.00 0.48 0.00 33 1008.3
20260509212309 29 102 6.4 12.9 0.00 0.48 0.00 32 1008.2
20260509211809 29 223 1.6 12.9 0.00 0.48 0.00 33 1008.3
20260509211746 28 176 11.3 14.5 0.00 0.48 0.00 34 1008.4
20260509211521 28 176 11.3 14.5 0.00 0.48 0.00 34 1008.4
20260509210808 29 88 12.9 14.5 0.00 0.48 0.00 32 1008.4
20260509210309 29 177 4.8 17.7 0.00 0.48 0.00 32 1008.6
20260509210153 29 216 3.2 17.7 0.00 0.48 0.00 33 1008.6
20260509210019 29 216 3.2 17.7 0.00 0.48 0.00 33 1008.6
20260509205657 29 173 8.0 14.5 0.00 0.48 0.00 33 1008.7
20260509205522 29 173 8.0 14.5 0.00 0.48 0.00 33 1008.7
20260509204808 29 212 11.3 20.9 0.00 0.48 0.00 33 1008.7
20260509204308 28 153 3.2 20.9 0.00 0.48 0.00 35 1008.6
20260509203808 29 172 8.0 17.7 0.00 0.48 0.00 38 1008.7
20260509203309 28 65 6.4 14.5 0.00 0.48 0.00 38 1008.6
20260509202808 28 136 4.8 17.7 0.00 0.48 0.00 38 1008.7
20260509202307 29 214 6.4 17.7 0.00 0.48 0.00 38 1008.9
20260509202203 29 146 4.8 17.7 0.00 0.48 0.00 41 1009.0
20260509201805 29 146 4.8 17.7 0.00 0.48 0.00 41 1009.0
20260509201307 30 222 3.2 9.7 0.00 0.48 0.00 37 1009.0
20260509201131 28 272 4.8 14.5 0.00 0.48 0.00 39 1009.1
20260509200950 28 167 1.6 9.7 0.00 0.48 0.00 39 1009.1
20260509200519 28 272 4.8 14.5 0.00 0.48 0.00 39 1009.1
20260509195809 28 159 3.2 20.9 0.00 0.48 0.00 40 1009.2
20260509195307 28 149 6.4 20.9 0.00 0.48 0.00 42 1009.2
20260509195157 29 223 3.2 9.7 0.00 0.48 0.00 37 1009.5
20260509194807 29 223 3.2 9.7 0.00 0.48 0.00 37 1009.5
20260509194306 28 132 0.0 9.7 0.00 0.48 0.00 39 1009.2
20260509193805 27 178 0.0 16.1 0.00 0.48 0.00 40 1009.4
20260509193308 28 82 9.7 16.1 0.00 0.48 0.00 40 1009.4
20260509193208 28 96 6.4 20.9 0.00 0.48 0.00 41 1009.6
20260509192807 28 96 6.4 20.9 0.00 0.48 0.00 41 1009.6
20260509192713 28 216 9.7 20.9 0.00 0.48 0.00 41 1009.6
20260509192519 28 216 9.7 20.9 0.00 0.48 0.00 41 1009.6
20260509191809 28 187 11.3 17.7 0.00 0.48 0.00 40 1009.6
20260509191305 28 213 8.0 14.5 0.00 0.48 0.00 38 1009.6
20260509190805 28 215 9.7 14.5 0.00 0.48 0.00 39 1009.7
20260509190619 28 211 6.4 17.7 0.00 0.48 0.00 43 1009.8
20260509190443 28 188 4.8 14.5 0.00 0.48 0.00 41 1009.8
20260509185805 28 211 6.4 17.7 0.00 0.48 0.00 43 1009.8
20260509185307 28 254 9.7 17.7 0.00 0.48 0.00 40 1009.9
20260509184807 28 305 4.8 16.1 0.00 0.48 0.00 41 1010.0
20260509184306 28 212 4.8 11.3 0.00 0.48 0.00 38 1010.0
20260509183809 28 223 0.0 17.7 0.00 0.48 0.00 38 1009.9
20260509183308 27 176 3.2 17.7 0.00 0.48 0.00 41 1010.1
20260509182805 27 143 6.4 12.9 0.00 0.48 0.00 42 1010.1
20260509182318 27 67 3.2 16.1 0.00 0.48 0.00 38 1010.2
20260509181806 27 166 4.8 19.3 0.00 0.48 0.00 42 1010.1
20260509181320 27 185 9.7 19.3 0.00 0.48 0.00 45 1010.2
20260509180806 27 202 16.1 16.1 0.00 0.48 0.00 43 1010.3
20260509180306 27 81 6.4 19.3 0.00 0.48 0.00 44 1010.6
20260509175812 26 172 9.7 19.3 0.00 0.48 0.00 45 1010.6
20260509175707 26 118 3.2 24.1 0.00 0.48 0.00 47 1010.7
20260509175521 26 118 3.2 24.1 0.00 0.48 0.00 47 1010.7
20260509174807 26 256 14.5 24.1 0.00 0.48 0.00 48 1010.9
20260509174306 26 284 3.2 16.1 0.00 0.48 0.00 52 1010.9
20260509173806 27 252 11.3 17.7 0.00 0.48 0.00 50 1010.9
20260509173307 27 204 9.7 17.7 0.00 0.48 0.00 49 1011.0
20260509172805 27 211 6.4 12.9 0.00 0.48 0.00 47 1010.7
20260509172704 26 107 6.4 12.9 0.00 0.48 0.00 50 1010.9
20260509172307 26 107 6.4 12.9 0.00 0.48 0.00 50 1010.9
20260509171807 26 203 4.8 12.9 0.00 0.48 0.00 48 1010.8
20260509171308 26 152 3.2 20.9 0.00 0.48 0.00 55 1011.0
20260509170806 25 177 4.8 20.9 0.00 0.48 0.00 55 1011.1
20260509170306 26 156 4.8 12.9 0.00 0.48 0.00 56 1011.1
20260509165806 26 176 6.4 12.9 0.00 0.48 0.00 60 1011.1
20260509165438 26 16 3.2 11.3 0.00 0.48 0.00 56 1011.2
20260509165424 25 172 4.8 9.7 0.00 0.48 0.00 57 1011.3
20260509165336 26 175 3.2 9.7 0.00 0.48 0.00 61 1011.1
20260509165000 26 168 4.8 11.3 0.00 0.48 0.00 59 1011.3
20260509164902 26 109 8.0 9.7 0.00 0.48 0.00 58 1011.0
20260509164441 26 16 3.2 11.3 0.00 0.48 0.00 56 1011.2
20260509163952 26 168 4.8 11.3 0.00 0.48 0.00 59 1011.3
20260509163307 25 172 4.8 9.7 0.00 0.48 0.00 57 1011.3
20260509162806 25 139 0.0 12.9 0.00 0.48 0.00 58 1011.5
20260509162307 25 234 4.8 16.1 0.00 0.48 0.00 59 1011.5
20260509161807 25 197 8.0 16.1 0.00 0.48 0.00 57 1011.3
20260509161717 25 189 3.2 9.7 0.00 0.48 0.00 64 1011.3
20260509161306 25 189 3.2 9.7 0.00 0.48 0.00 64 1011.3
20260509161134 24 210 4.8 16.1 0.00 0.48 0.00 67 1011.5
20260509160307 24 174 9.7 16.1 0.00 0.48 0.00 63 1011.4
20260509155806 24 174 6.4 9.7 0.00 0.48 0.00 69 1011.1
20260509155636 23 173 4.8 11.3 0.00 0.48 0.00 69 1011.3
20260509155449 23 202 6.4 9.7 0.00 0.48 0.00 69 1011.2
20260509155018 23 173 4.8 11.3 0.00 0.48 0.00 69 1011.3
20260509154332 23 135 3.2 11.3 0.00 0.48 0.00 71 1011.2
20260509154238 23 171 6.4 14.5 0.00 0.48 0.00 70 1011.2
20260509153806 23 171 6.4 14.5 0.00 0.48 0.00 70 1011.2
20260509153308 23 207 9.7 14.5 0.00 0.48 0.00 68 1011.3
20260509152808 23 214 8.0 14.5 0.00 0.48 0.00 69 1011.4
20260509152311 23 144 6.4 12.9 0.00 0.48 0.00 72 1011.2
20260509152159 22 164 4.8 12.9 0.00 0.48 0.00 73 1011.2
20260509152019 22 164 4.8 12.9 0.00 0.48 0.00 73 1011.2
20260509151309 22 145 8.0 14.5 0.00 0.48 0.00 76 1011.2
20260509150810 22 167 8.0 14.5 0.00 0.48 0.00 76 1011.2
20260509150309 22 168 9.7 14.5 0.00 0.48 0.00 74 1011.2
20260509145808 22 165 6.4 14.5 0.00 0.48 0.00 77 1011.2
20260509145307 22 157 4.8 11.3 0.00 0.48 0.00 76 1011.3
20260509144808 22 160 3.2 11.3 0.00 0.48 0.00 77 1011.1
20260509144708 22 66 1.6 9.7 0.00 0.48 0.00 76 1011.1
20260509144520 22 66 1.6 9.7 0.00 0.48 0.00 76 1011.1
20260509144115 22 131 3.2 8.0 0.00 0.48 0.00 77 1011.1
20260509144053 22 183 1.6 4.8 0.00 0.48 0.00 76 1011.2
20260509143932 22 91 8.0 9.7 0.00 0.48 0.00 75 1011.1
20260509143436 22 131 3.2 8.0 0.00 0.48 0.00 77 1011.1
20260509142308 22 98 1.6 4.8 0.00 0.48 0.00 76 1011.2
20260509141810 21 345 0.0 4.8 0.00 0.48 0.00 79 1011.3
20260509141309 21 218 0.0 4.8 0.00 0.48 0.00 80 1011.3
20260509141252 21 197 0.0 6.4 0.00 0.48 0.00 82 1011.1
20260509140838 21 197 0.0 6.4 0.00 0.48 0.00 82 1011.1
20260509140309 20 108 1.6 6.4 0.00 0.48 0.00 83 1010.8
20260509140222 20 160 1.6 4.8 0.00 0.48 0.00 85 1011.0
20260509135822 20 160 1.6 4.8 0.00 0.48 0.00 85 1011.0
20260509135309 20 107 1.6 4.8 0.00 0.48 0.00 85 1010.9
20260509135102 18 170 0.0 3.2 0.00 0.48 0.00 93 1010.8
20260509134939 19 94 1.6 4.8 0.00 0.48 0.00 87 1010.8
20260509134305 18 170 0.0 3.2 0.00 0.48 0.00 93 1010.8
20260509133825 18 107 1.6 3.2 0.00 0.48 0.00 97 1010.8
20260509133305 18 164 0.0 4.8 0.00 0.48 0.00 98 1010.8
20260509133005 16 21 3.2 3.2 0.00 0.48 0.00 98 1010.6
20260509132954 16 5 3.2 3.2 0.00 0.48 0.00 98 1010.8
20260509132858 16 341 1.6 4.8 0.00 0.48 0.00 98 1010.8
20260509132649 16 5 3.2 3.2 0.00 0.48 0.00 98 1010.8
20260509132016 16 21 3.2 3.2 0.00 0.48 0.00 98 1010.6
20260509131716 17 50 0.0 3.2 0.00 0.48 0.00 98 1010.6
20260509131318 17 50 0.0 3.2 0.00 0.48 0.00 98 1010.6
20260509130807 18 129 0.0 0.0 0.00 0.48 0.00 98 1010.6
20260509130651 17 129 0.0 1.6 0.00 0.48 0.00 98 1010.6
20260509130306 17 129 0.0 1.6 0.00 0.48 0.00 98 1010.6
20260509130150 16 66 0.0 3.2 0.00 0.48 0.00 98 1010.4
20260509130018 16 66 0.0 3.2 0.00 0.48 0.00 98 1010.4
20260509125308 15 112 0.0 3.2 0.00 0.48 0.00 98 1010.2
20260509124806 15 89 0.0 1.6 0.00 0.48 0.00 98 1010.3
20260509124306 15 100 0.0 1.6 0.00 0.48 0.00 98 1010.4
20260509123804 15 131 0.0 1.6 0.00 0.48 0.00 98 1010.2
20260509123305 14 209 0.0 1.6 0.00 0.48 0.00 98 1010.3
20260509122805 14 142 0.0 0.0 0.00 0.48 0.00 98 1010.2
20260509122308 13 135 0.0 0.0 0.00 0.48 0.00 98 1010.2
20260509122216 13 135 0.0 3.2 0.00 0.48 0.00 98 1010.0
20260509121820 13 135 0.0 3.2 0.00 0.48 0.00 98 1010.0
20260509121710 12 154 0.0 3.2 0.00 0.48 0.00 98 1010.0
20260509121307 12 154 0.0 3.2 0.00 0.48 0.00 98 1010.0
20260509120806 12 203 3.2 3.2 0.00 0.48 0.00 98 1010.0
20260509120328 12 232 3.2 3.2 0.00 0.48 0.00 98 1010.0
20260509115807 11 243 3.2 3.2 0.00 0.48 0.00 98 1009.9
20260509115357 11 103 0.0 1.6 0.00 0.48 0.00 98 1009.7
20260509115308 11 234 3.2 3.2 0.00 0.48 0.00 98 1009.9
20260509114947 11 103 0.0 1.6 0.00 0.48 0.00 98 1009.7
20260509114641 11 229 0.0 1.6 0.00 0.48 0.00 98 1009.6
20260509114450 11 229 0.0 1.6 0.00 0.48 0.00 98 1009.6
20260509113737 11 229 0.0 1.6 0.00 0.48 0.00 98 1009.8
20260509113724 11 113 0.0 1.6 0.00 0.48 0.00 98 1009.5
20260509113447 11 113 0.0 1.6 0.00 0.48 0.00 98 1009.5
20260509112737 11 117 0.0 1.6 0.00 0.48 0.00 98 1009.2
20260509112648 11 193 0.0 3.2 0.00 0.48 0.00 98 1009.3
20260509112237 11 193 0.0 3.2 0.00 0.48 0.00 98 1009.3
20260509111737 11 180 0.0 3.2 0.00 0.48 0.00 98 1009.3
20260509111336 11 249 0.0 3.2 0.00 0.48 0.00 98 1009.3
20260509111325 12 182 1.6 3.2 0.00 0.48 0.00 98 1009.2
20260509111249 11 233 1.6 3.2 0.00 0.48 0.00 98 1009.3
20260509110902 11 249 0.0 3.2 0.00 0.48 0.00 98 1009.3
20260509110815 11 135 0.0 1.6 0.00 0.48 0.00 98 1009.4
20260509110540 12 235 0.0 1.6 0.00 0.48 0.00 98 1009.3
20260509105447 12 182 1.6 3.2 0.00 0.48 0.00 98 1009.2
20260509105137 12 146 1.6 3.2 0.00 0.48 0.00 98 1009.2
20260509104738 12 146 1.6 3.2 0.00 0.48 0.00 98 1009.2
20260509104237 12 113 0.0 0.0 0.00 0.48 0.00 98 1009.2
20260509104136 12 113 0.0 1.6 0.00 0.48 0.00 98 1009.3
20260509103948 12 113 0.0 1.6 0.00 0.48 0.00 98 1009.3
20260509103724 12 129 0.0 1.6 0.00 0.48 0.00 98 1009.4
20260509103452 12 129 0.0 1.6 0.00 0.48 0.00 98 1009.4
20260509102737 12 175 0.0 1.6 0.00 0.48 0.00 98 1009.4
20260509102237 12 230 0.0 0.0 0.00 0.48 0.00 98 1009.4
20260509101737 12 230 0.0 3.2 0.00 0.48 0.00 98 1009.5
20260509101237 13 224 0.0 3.2 0.00 0.48 0.00 98 1009.6
20260509100737 12 216 1.6 3.2 0.00 0.48 0.00 98 1009.5
20260509100237 12 190 1.6 3.2 0.00 0.48 0.00 98 1009.9
20260509095737 13 201 1.6 3.2 0.00 0.48 0.00 98 1009.8
20260509095636 13 193 1.6 3.2 0.00 0.48 0.00 98 1010.0
20260509095452 13 193 1.6 3.2 0.00 0.48 0.00 98 1010.0
20260509094747 13 218 1.6 3.2 0.00 0.48 0.00 98 1010.2
20260509094538 13 124 0.0 3.2 0.00 0.48 0.00 98 1010.0
20260509094414 13 217 0.0 3.2 0.00 0.48 0.00 98 1010.0
20260509093736 13 124 0.0 3.2 0.00 0.48 0.00 98 1010.0
20260509093237 13 189 0.0 3.2 0.00 0.48 0.00 98 1009.8
20260509093126 13 245 1.6 3.2 0.00 0.48 0.00 98 1009.8
20260509092949 13 245 1.6 3.2 0.00 0.48 0.00 98 1009.8
20260509092238 13 129 0.0 0.0 0.00 0.48 0.00 98 1009.7
20260509091736 13 25 0.0 0.0 0.00 0.48 0.00 98 1009.8
20260509091632 13 327 0.0 3.2 0.00 0.48 0.00 98 1009.8
20260509091451 13 327 0.0 3.2 0.00 0.48 0.00 98 1009.8
20260509091117 13 13 0.0 3.2 0.00 0.48 0.00 98 1009.9
20260509090736 13 13 0.0 3.2 0.00 0.48 0.00 98 1009.9
20260509090238 13 11 0.0 3.2 0.00 0.48 0.00 98 1009.7
20260509090126 13 345 1.6 3.2 0.00 0.48 0.00 98 1009.8
20260509085737 13 345 1.6 3.2 0.00 0.48 0.00 98 1009.8
20260509085238 12 164 0.0 3.2 0.00 0.48 0.00 98 1009.8
20260509085135 13 138 1.6 3.2 0.00 0.48 0.00 98 1009.8
20260509084737 13 138 1.6 3.2 0.00 0.48 0.00 98 1009.8
20260509084237 13 62 0.0 1.6 0.00 0.48 0.00 98 1009.5
20260509083736 13 154 0.0 3.2 0.00 0.48 0.00 98 1009.6
20260509083307 13 224 0.0 3.2 0.00 0.48 0.00 98 1009.7
20260509083138 13 142 0.0 3.2 0.00 0.48 0.00 98 1009.6
20260509082738 13 142 0.0 3.2 0.00 0.48 0.00 98 1009.6
20260509082516 13 89 0.0 0.0 0.00 0.48 0.00 98 1009.8
20260509082355 13 117 0.0 3.2 0.00 0.48 0.00 98 1009.7
20260509081916 13 176 1.6 3.2 0.00 0.48 0.00 98 1009.9
20260509081448 13 89 0.0 0.0 0.00 0.48 0.00 98 1009.8
20260509081138 13 205 0.0 3.2 0.00 0.48 0.00 98 1009.9
20260509080947 13 205 0.0 3.2 0.00 0.48 0.00 98 1009.9
20260509080248 13 53 0.0 3.2 0.00 0.48 0.00 98 1009.9
20260509075737 13 135 0.0 3.2 0.00 0.48 0.00 98 1010.0
20260509075638 13 174 1.6 3.2 0.00 0.48 0.00 98 1009.9
20260509075241 13 174 1.6 3.2 0.00 0.48 0.00 98 1009.9
20260509074738 13 230 0.0 3.2 0.00 0.48 0.00 98 1010.1
20260509074236 14 229 1.6 3.2 0.00 0.48 0.00 98 1010.2
20260509074052 13 164 0.0 4.8 0.00 0.48 0.00 98 1010.1
20260509073917 13 172 0.0 0.0 0.00 0.48 0.00 98 1010.1
20260509073238 13 164 0.0 4.8 0.00 0.48 0.00 98 1010.1
20260509073127 14 171 0.0 4.8 0.00 0.48 0.00 98 1010.2
20260509072737 14 171 0.0 4.8 0.00 0.48 0.00 98 1010.2
20260509072525 14 343 0.0 1.6 0.00 0.48 0.00 98 1010.1
20260509072401 14 232 3.2 3.2 0.00 0.48 0.00 98 1010.3
20260509071239 14 351 0.0 1.6 0.00 0.48 0.00 98 1010.2
20260509071136 14 315 0.0 1.6 0.00 0.48 0.00 98 1010.3
20260509070949 14 315 0.0 1.6 0.00 0.48 0.00 98 1010.3
20260509070237 14 135 0.0 3.2 0.00 0.48 0.00 98 1010.4
20260509065738 14 138 1.6 4.8 0.00 0.48 0.00 98 1010.2
20260509065639 14 223 3.2 4.8 0.00 0.48 0.00 98 1010.2
20260509065236 14 223 3.2 4.8 0.00 0.48 0.00 98 1010.2
20260509064737 14 129 0.0 3.2 0.00 0.48 0.00 98 1010.4
20260509064645 14 158 1.6 3.2 0.00 0.48 0.00 98 1010.7
20260509064448 14 158 1.6 3.2 0.00 0.48 0.00 98 1010.7
20260509063737 14 198 1.6 3.2 0.00 0.48 0.00 98 1010.6
20260509063238 14 135 0.0 3.2 0.00 0.48 0.00 98 1010.6
20260509063226 14 155 1.6 3.2 0.00 0.48 0.00 98 1010.4
20260509062737 14 155 1.6 3.2 0.00 0.48 0.00 98 1010.4
20260509062238 14 143 3.2 3.2 0.00 0.48 0.00 98 1010.6
20260509062138 14 192 3.2 3.2 0.00 0.48 0.00 98 1010.8
20260509061950 14 192 3.2 3.2 0.00 0.48 0.00 98 1010.8
20260509061236 14 135 0.0 1.6 0.00 0.48 0.00 98 1010.6
20260509061053 15 49 1.6 3.2 0.00 0.48 0.00 98 1010.9
20260509060920 15 198 0.0 3.2 0.00 0.48 0.00 98 1010.8
20260509060450 15 49 1.6 3.2 0.00 0.48 0.00 98 1010.9
20260509060224 15 169 0.0 3.2 0.00 0.48 0.00 98 1010.9
20260509055950 15 169 0.0 3.2 0.00 0.48 0.00 98 1010.9
20260509055243 15 180 1.6 3.2 0.00 0.48 0.00 98 1010.8
20260509054738 15 174 0.0 3.2 0.00 0.48 0.00 97 1010.7
20260509054238 15 180 0.0 3.2 0.00 0.48 0.00 97 1010.7
20260509053736 15 182 3.2 4.8 0.00 0.48 0.00 98 1010.7
20260509053617 15 186 3.2 6.4 0.00 0.48 0.00 98 1010.3
20260509053440 15 160 3.2 6.4 0.00 0.48 0.00 97 1010.4
20260509052948 15 186 3.2 6.4 0.00 0.48 0.00 98 1010.3
20260509052237 15 84 4.8 9.7 0.00 0.48 0.00 98 1010.4
20260509052126 15 87 3.2 9.7 0.00 0.48 0.00 98 1010.3
20260509051737 15 87 3.2 9.7 0.00 0.48 0.00 98 1010.3
20260509051637 15 85 3.2 9.7 0.00 0.48 0.00 98 1010.4
20260509051449 15 85 3.2 9.7 0.00 0.48 0.00 98 1010.4
20260509051137 15 129 3.2 11.3 0.00 0.48 0.00 98 1010.3
20260509050949 15 129 3.2 11.3 0.00 0.48 0.00 98 1010.3
20260509050236 15 100 4.8 11.3 0.00 0.48 0.00 98 1010.4
20260509045734 15 140 3.2 8.0 0.00 0.48 0.48 98 1010.3
20260509045635 15 123 1.6 8.0 0.00 0.48 0.48 98 1010.1
20260509045447 15 123 1.6 8.0 0.00 0.48 0.48 98 1010.1
20260509044734 15 97 4.8 6.4 0.00 0.48 0.48 98 1010.1
20260509044235 15 44 4.8 8.0 0.00 0.48 0.48 98 1010.3
20260509043955 15 49 1.6 4.8 0.00 0.48 0.48 96 1010.1
20260509043946 15 124 0.0 6.4 0.00 0.48 0.48 97 1010.4
20260509043932 15 48 1.6 3.2 0.00 0.48 0.48 97 1010.3
20260509043921 15 112 1.6 3.2 0.00 0.48 0.48 97 1010.4
20260509043911 15 111 3.2 3.2 0.00 0.48 0.48 97 1010.3
20260509043859 15 9 1.6 6.4 0.00 0.48 0.48 97 1010.2
20260509043811 15 42 4.8 8.0 0.00 0.48 0.48 97 1010.3
20260509043601 15 48 1.6 3.2 0.00 0.48 0.48 97 1010.3
20260509042933 15 112 1.6 3.2 0.00 0.48 0.48 97 1010.4
20260509042441 15 111 3.2 3.2 0.00 0.48 0.48 97 1010.3
20260509042012 15 9 1.6 6.4 0.00 0.48 0.48 97 1010.2
20260509041546 15 124 0.0 6.4 0.00 0.48 0.48 97 1010.4
20260509040854 15 58 6.4 6.4 0.00 0.48 0.48 97 1010.6
20260509040545 15 49 1.6 4.8 0.00 0.48 0.48 96 1010.1
20260509040405 15 112 0.0 3.2 0.00 0.48 0.48 97 1010.6
20260509035931 15 178 1.6 3.2 0.00 0.48 0.48 96 1010.1
20260509034735 15 235 0.0 6.4 0.00 0.48 0.48 96 1010.0
20260509034233 15 186 3.2 8.0 0.00 0.48 0.48 96 1010.0
20260509034031 15 191 3.2 4.8 0.00 0.48 0.48 96 1009.9
20260509033901 15 194 3.2 8.0 0.00 0.48 0.48 96 1009.9
20260509032740 15 178 3.2 4.8 0.00 0.48 0.48 96 1009.7
20260509032231 16 44 0.0 9.7 0.00 0.48 0.48 96 1009.5
20260509032133 16 134 1.6 11.3 0.00 0.48 0.48 96 1009.7
20260509031731 16 134 1.6 11.3 0.00 0.48 0.48 96 1009.7
20260509031231 15 159 9.7 11.3 0.00 0.48 0.48 96 1009.5
20260509030732 15 143 3.2 3.2 0.00 0.48 0.48 95 1009.1
20260509030231 15 212 0.0 4.8 0.00 0.48 0.48 95 1009.1
20260509030134 15 221 3.2 4.8 0.00 0.48 0.48 94 1009.1
20260509025943 15 221 3.2 4.8 0.00 0.48 0.48 94 1009.1
20260509025720 15 137 3.2 3.2 0.00 0.48 0.48 94 1009.3
20260509025442 15 137 3.2 3.2 0.00 0.48 0.48 94 1009.3
20260509025145 16 124 1.6 3.2 0.00 0.48 0.48 94 1008.7
20260509024943 16 124 1.6 3.2 0.00 0.48 0.48 94 1008.7
20260509024234 16 177 0.0 4.8 0.00 0.48 0.48 93 1008.7
20260509023732 16 229 0.0 4.8 0.00 0.48 0.48 93 1008.6
20260509023231 16 187 3.2 6.4 0.00 0.48 0.48 93 1008.7
20260509022734 16 132 0.0 8.0 0.00 0.48 0.48 93 1008.6
20260509022721 16 147 3.2 8.0 0.00 0.48 0.48 93 1008.4